Year,Month,Day,Hour,Minute,Value (Times are PST for temperature in C)
2013,07,16,00,00,23.20
2013,07,16,00,01,23.20
2013,07,16,00,02,23.20
2013,07,16,00,03,23.20
2013,07,16,00,04,23.20
2013,07,16,00,05,23.20
2013,07,16,00,06,23.20
2013,07,16,00,07,23.20
2013,07,16,00,08,23.20
2013,07,16,00,09,23.20
2013,07,16,00,10,23.10
2013,07,16,00,11,23.10
2013,07,16,00,12,23.10
2013,07,16,00,13,23.00
2013,07,16,00,14,23.00
2013,07,16,00,15,23.00
2013,07,16,00,16,22.90
2013,07,16,00,17,22.90
2013,07,16,00,18,22.90
2013,07,16,00,19,22.90
2013,07,16,00,20,22.90
2013,07,16,00,21,22.90
2013,07,16,00,22,22.80
2013,07,16,00,23,22.80
2013,07,16,00,24,22.80
2013,07,16,00,25,22.80
2013,07,16,00,26,22.80
2013,07,16,00,27,22.80
2013,07,16,00,28,22.80
2013,07,16,00,29,22.80
2013,07,16,00,30,22.80
2013,07,16,00,31,22.80
2013,07,16,00,32,22.80
2013,07,16,00,33,22.80
2013,07,16,00,34,22.80
2013,07,16,00,35,22.80
2013,07,16,00,36,22.80
2013,07,16,00,37,22.80
2013,07,16,00,38,22.80
2013,07,16,00,39,22.80
2013,07,16,00,40,22.80
2013,07,16,00,41,22.80
2013,07,16,00,42,22.80
2013,07,16,00,43,22.80
2013,07,16,00,44,22.80
2013,07,16,00,45,22.80
2013,07,16,00,46,22.80
2013,07,16,00,47,22.80
2013,07,16,00,48,22.80
2013,07,16,00,49,22.80
2013,07,16,00,50,22.80
2013,07,16,00,51,22.80
2013,07,16,00,52,22.80
2013,07,16,00,53,22.90
2013,07,16,00,54,22.90
2013,07,16,00,55,22.90
2013,07,16,00,56,22.90
2013,07,16,00,57,22.80
2013,07,16,00,58,22.90
2013,07,16,00,59,22.90
2013,07,16,01,00,22.90
2013,07,16,01,01,22.90
2013,07,16,01,02,22.90
2013,07,16,01,03,22.90
2013,07,16,01,04,22.90
2013,07,16,01,05,22.90
2013,07,16,01,06,22.90
2013,07,16,01,07,22.90
2013,07,16,01,08,22.90
2013,07,16,01,09,22.90
2013,07,16,01,10,22.80
2013,07,16,01,11,22.80
2013,07,16,01,12,22.80
2013,07,16,01,13,22.90
2013,07,16,01,14,22.90
2013,07,16,01,15,22.90
2013,07,16,01,16,22.90
2013,07,16,01,17,22.90
2013,07,16,01,18,22.80
2013,07,16,01,19,22.80
2013,07,16,01,20,22.80
2013,07,16,01,21,22.80
2013,07,16,01,22,22.80
2013,07,16,01,23,22.80
2013,07,16,01,24,22.80
2013,07,16,01,25,22.80
2013,07,16,01,26,22.70
2013,07,16,01,27,22.70
2013,07,16,01,28,22.70
2013,07,16,01,29,22.70
2013,07,16,01,30,22.70
2013,07,16,01,31,22.70
2013,07,16,01,32,22.70
2013,07,16,01,33,22.60
2013,07,16,01,34,22.60
2013,07,16,01,35,22.60
2013,07,16,01,36,22.60
2013,07,16,01,37,22.60
2013,07,16,01,38,22.60
2013,07,16,01,39,22.60
2013,07,16,01,40,22.60
2013,07,16,01,41,22.60
2013,07,16,01,42,22.60
2013,07,16,01,43,22.50
2013,07,16,01,44,22.50
2013,07,16,01,45,22.50
2013,07,16,01,46,22.50
2013,07,16,01,47,22.50
2013,07,16,01,48,22.50
2013,07,16,01,49,22.50
2013,07,16,01,50,22.50
2013,07,16,01,51,22.50
2013,07,16,01,52,22.50
2013,07,16,01,53,22.50
2013,07,16,01,54,22.40
2013,07,16,01,55,22.40
2013,07,16,01,56,22.40
2013,07,16,01,57,22.40
2013,07,16,01,58,22.40
2013,07,16,01,59,22.40
2013,07,16,02,00,22.40
2013,07,16,02,01,22.50
2013,07,16,02,02,22.40
2013,07,16,02,03,22.40
2013,07,16,02,04,22.40
2013,07,16,02,05,22.40
2013,07,16,02,06,22.40
2013,07,16,02,07,22.40
2013,07,16,02,08,22.40
2013,07,16,02,09,22.50
2013,07,16,02,10,22.60
2013,07,16,02,11,22.60
2013,07,16,02,12,22.60
2013,07,16,02,13,22.70
2013,07,16,02,14,22.70
2013,07,16,02,15,22.70
2013,07,16,02,16,22.70
2013,07,16,02,17,22.70
2013,07,16,02,18,22.70
2013,07,16,02,19,22.70
2013,07,16,02,20,22.60
2013,07,16,02,21,22.60
2013,07,16,02,22,22.60
2013,07,16,02,23,22.60
2013,07,16,02,24,22.60
2013,07,16,02,25,22.60
2013,07,16,02,26,22.60
2013,07,16,02,27,22.60
2013,07,16,02,28,22.60
2013,07,16,02,29,22.60
2013,07,16,02,30,22.50
2013,07,16,02,31,22.50
2013,07,16,02,32,22.50
2013,07,16,02,33,22.40
2013,07,16,02,34,22.40
2013,07,16,02,35,22.30
2013,07,16,02,36,22.30
2013,07,16,02,37,22.30
2013,07,16,02,38,22.20
2013,07,16,02,39,22.20
2013,07,16,02,40,22.20
2013,07,16,02,41,22.20
2013,07,16,02,42,22.10
2013,07,16,02,43,22.10
2013,07,16,02,44,22.10
2013,07,16,02,45,22.00
2013,07,16,02,46,22.00
2013,07,16,02,47,22.00
2013,07,16,02,48,22.00
2013,07,16,02,49,22.00
2013,07,16,02,50,22.00
2013,07,16,02,51,21.90
2013,07,16,02,52,21.90
2013,07,16,02,53,22.00
2013,07,16,02,54,22.00
2013,07,16,02,55,22.00
2013,07,16,02,56,22.00
2013,07,16,02,57,21.90
2013,07,16,02,58,21.90
2013,07,16,02,59,21.90
2013,07,16,03,00,21.90
2013,07,16,03,01,21.90
2013,07,16,03,02,21.90
2013,07,16,03,03,21.80
2013,07,16,03,04,21.80
2013,07,16,03,05,21.80
2013,07,16,03,06,21.70
2013,07,16,03,07,21.70
2013,07,16,03,08,21.70
2013,07,16,03,09,21.60
2013,07,16,03,10,21.60
2013,07,16,03,11,21.60
2013,07,16,03,12,21.60
2013,07,16,03,13,21.50
2013,07,16,03,14,21.50
2013,07,16,03,15,21.50
2013,07,16,03,16,21.40
2013,07,16,03,17,21.50
2013,07,16,03,18,21.50
2013,07,16,03,19,21.50
2013,07,16,03,20,21.50
2013,07,16,03,21,21.50
2013,07,16,03,22,21.50
2013,07,16,03,23,21.50
2013,07,16,03,24,21.50
2013,07,16,03,25,21.40
2013,07,16,03,26,21.40
2013,07,16,03,27,21.40
2013,07,16,03,28,21.40
2013,07,16,03,29,21.40
2013,07,16,03,30,21.40
2013,07,16,03,31,21.40
2013,07,16,03,32,21.50
2013,07,16,03,33,21.50
2013,07,16,03,34,21.50
2013,07,16,03,35,21.40
2013,07,16,03,36,21.40
2013,07,16,03,37,21.40
2013,07,16,03,38,21.40
2013,07,16,03,39,21.40
2013,07,16,03,40,21.40
2013,07,16,03,41,21.50
2013,07,16,03,42,21.50
2013,07,16,03,43,21.40
2013,07,16,03,44,21.40
2013,07,16,03,45,21.40
2013,07,16,03,46,21.40
2013,07,16,03,47,21.40
2013,07,16,03,48,21.40
2013,07,16,03,49,21.40
2013,07,16,03,50,21.40
2013,07,16,03,51,21.40
2013,07,16,03,52,21.40
2013,07,16,03,53,21.40
2013,07,16,03,54,21.40
2013,07,16,03,55,21.40
2013,07,16,03,56,21.40
2013,07,16,03,57,21.30
2013,07,16,03,58,21.20
2013,07,16,03,59,21.10
2013,07,16,04,00,21.00
2013,07,16,04,01,20.90
2013,07,16,04,02,20.80
2013,07,16,04,03,20.80
2013,07,16,04,04,20.60
2013,07,16,04,05,20.50
2013,07,16,04,06,20.50
2013,07,16,04,07,20.50
2013,07,16,04,08,20.50
2013,07,16,04,09,20.40
2013,07,16,04,10,20.40
2013,07,16,04,11,20.40
2013,07,16,04,12,20.30
2013,07,16,04,13,20.10
2013,07,16,04,14,19.90
2013,07,16,04,15,19.70
2013,07,16,04,16,19.60
2013,07,16,04,17,19.40
2013,07,16,04,18,19.30
2013,07,16,04,19,19.30
2013,07,16,04,20,19.30
2013,07,16,04,21,19.20
2013,07,16,04,22,19.20
2013,07,16,04,23,19.10
2013,07,16,04,24,19.00
2013,07,16,04,25,19.00
2013,07,16,04,26,19.00
2013,07,16,04,27,18.90
2013,07,16,04,28,19.00
2013,07,16,04,29,19.10
2013,07,16,04,30,19.10
2013,07,16,04,31,19.10
2013,07,16,04,32,19.10
2013,07,16,04,33,19.10
2013,07,16,04,34,19.10
2013,07,16,04,35,19.10
2013,07,16,04,36,19.00
2013,07,16,04,37,18.90
2013,07,16,04,38,18.80
2013,07,16,04,39,18.80
2013,07,16,04,40,18.70
2013,07,16,04,41,18.60
2013,07,16,04,42,18.50
2013,07,16,04,43,18.40
2013,07,16,04,44,18.30
2013,07,16,04,45,18.20
2013,07,16,04,46,18.20
2013,07,16,04,47,18.20
2013,07,16,04,48,18.20
2013,07,16,04,49,18.10
2013,07,16,04,50,18.10
2013,07,16,04,51,18.00
2013,07,16,04,52,17.90
2013,07,16,04,53,17.90
2013,07,16,04,54,17.80
2013,07,16,04,55,17.80
2013,07,16,04,56,17.80
2013,07,16,04,57,17.70
2013,07,16,04,58,17.70
2013,07,16,04,59,17.60
2013,07,16,05,00,17.60
2013,07,16,05,01,17.60
2013,07,16,05,02,17.50
2013,07,16,05,03,17.40
2013,07,16,05,04,17.40
2013,07,16,05,05,17.30
2013,07,16,05,06,17.30
2013,07,16,05,07,17.30
2013,07,16,05,08,17.30
2013,07,16,05,09,17.30
2013,07,16,05,10,17.20
2013,07,16,05,11,17.20
2013,07,16,05,12,17.20
2013,07,16,05,13,17.20
2013,07,16,05,14,17.20
2013,07,16,05,15,17.20
2013,07,16,05,16,17.20
2013,07,16,05,17,17.20
2013,07,16,05,18,17.20
2013,07,16,05,19,17.20
2013,07,16,05,20,17.20
2013,07,16,05,21,17.20
2013,07,16,05,22,17.10
2013,07,16,05,23,17.10
2013,07,16,05,24,17.10
2013,07,16,05,25,17.10
2013,07,16,05,26,17.10
2013,07,16,05,27,17.10
2013,07,16,05,28,17.10
2013,07,16,05,29,17.10
2013,07,16,05,30,17.10
2013,07,16,05,31,17.00
2013,07,16,05,32,17.00
2013,07,16,05,33,16.90
2013,07,16,05,34,16.80
2013,07,16,05,35,16.80
2013,07,16,05,36,16.80
2013,07,16,05,37,16.80
2013,07,16,05,38,16.80
2013,07,16,05,39,16.70
2013,07,16,05,40,16.70
2013,07,16,05,41,16.70
2013,07,16,05,42,16.70
2013,07,16,05,43,16.70
2013,07,16,05,44,16.80
2013,07,16,05,45,16.80
2013,07,16,05,46,16.80
2013,07,16,05,47,16.80
2013,07,16,05,48,16.70
2013,07,16,05,49,16.60
2013,07,16,05,50,16.60
2013,07,16,05,51,16.60
2013,07,16,05,52,16.50
2013,07,16,05,53,16.60
2013,07,16,05,54,16.60
2013,07,16,05,55,16.60
2013,07,16,05,56,16.60
2013,07,16,05,57,16.70
2013,07,16,05,58,16.70
2013,07,16,05,59,16.80
2013,07,16,06,00,16.80
2013,07,16,06,01,16.80
2013,07,16,06,02,16.90
2013,07,16,06,03,17.00
2013,07,16,06,04,17.10
2013,07,16,06,05,17.10
2013,07,16,06,06,17.20
2013,07,16,06,07,17.20
2013,07,16,06,08,17.30
2013,07,16,06,09,17.30
2013,07,16,06,10,17.20
2013,07,16,06,11,17.20
2013,07,16,06,12,17.20
2013,07,16,06,13,17.20
2013,07,16,06,14,17.20
2013,07,16,06,15,17.20
2013,07,16,06,16,17.20
2013,07,16,06,17,17.20
2013,07,16,06,18,17.10
2013,07,16,06,19,17.10
2013,07,16,06,20,17.10
2013,07,16,06,21,17.10
2013,07,16,06,22,17.10
2013,07,16,06,23,17.10
2013,07,16,06,24,17.00
2013,07,16,06,25,17.10
2013,07,16,06,26,17.10
2013,07,16,06,27,17.20
2013,07,16,06,28,17.20
2013,07,16,06,29,17.20
2013,07,16,06,30,17.20
2013,07,16,06,31,17.30
2013,07,16,06,32,17.30
2013,07,16,06,33,17.40
2013,07,16,06,34,17.40
2013,07,16,06,35,17.50
2013,07,16,06,36,17.50
2013,07,16,06,37,17.50
2013,07,16,06,38,17.60
2013,07,16,06,39,17.60
2013,07,16,06,40,17.70
2013,07,16,06,41,17.70
2013,07,16,06,42,17.70
2013,07,16,06,43,17.80
2013,07,16,06,44,17.80
2013,07,16,06,45,17.90
2013,07,16,06,46,18.00
2013,07,16,06,47,18.20
2013,07,16,06,48,18.30
2013,07,16,06,49,18.40
2013,07,16,06,50,18.60
2013,07,16,06,51,18.60
2013,07,16,06,52,18.70
2013,07,16,06,53,18.80
2013,07,16,06,54,18.80
2013,07,16,06,55,18.90
2013,07,16,06,56,18.90
2013,07,16,06,57,18.90
2013,07,16,06,58,18.90
2013,07,16,06,59,18.80
2013,07,16,07,00,18.70
2013,07,16,07,01,18.70
2013,07,16,07,02,18.70
2013,07,16,07,03,18.70
2013,07,16,07,04,18.70
2013,07,16,07,05,18.80
2013,07,16,07,06,18.90
2013,07,16,07,07,18.90
2013,07,16,07,08,19.00
2013,07,16,07,09,19.10
2013,07,16,07,10,19.20
2013,07,16,07,11,19.30
2013,07,16,07,12,19.40
2013,07,16,07,13,19.60
2013,07,16,07,14,19.70
2013,07,16,07,15,19.90
2013,07,16,07,16,20.00
2013,07,16,07,17,20.10
2013,07,16,07,18,20.30
2013,07,16,07,19,20.40
2013,07,16,07,20,20.50
2013,07,16,07,21,20.60
2013,07,16,07,22,20.70
2013,07,16,07,23,20.80
2013,07,16,07,24,20.90
2013,07,16,07,25,21.00
2013,07,16,07,26,21.10
2013,07,16,07,27,21.20
2013,07,16,07,28,21.30
2013,07,16,07,29,21.40
2013,07,16,07,30,21.40
2013,07,16,07,31,21.50
2013,07,16,07,32,21.50
2013,07,16,07,33,21.60
2013,07,16,07,34,21.60
2013,07,16,07,35,21.60
2013,07,16,07,36,21.60
2013,07,16,07,37,21.70
2013,07,16,07,38,21.80
2013,07,16,07,39,21.90
2013,07,16,07,40,22.00
2013,07,16,07,41,22.00
2013,07,16,07,42,22.00
2013,07,16,07,43,21.90
2013,07,16,07,44,22.00
2013,07,16,07,45,22.10
2013,07,16,07,46,22.30
2013,07,16,07,47,22.40
2013,07,16,07,48,22.40
2013,07,16,07,49,22.50
2013,07,16,07,50,22.50
2013,07,16,07,51,22.60
2013,07,16,07,52,22.70
2013,07,16,07,53,22.80
2013,07,16,07,54,22.90
2013,07,16,07,55,22.90
2013,07,16,07,56,22.90
2013,07,16,07,57,22.90
2013,07,16,07,58,23.00
2013,07,16,07,59,22.90
2013,07,16,08,00,22.90
2013,07,16,08,01,22.90
2013,07,16,08,02,23.00
2013,07,16,08,03,23.00
2013,07,16,08,04,23.00
2013,07,16,08,05,23.10
2013,07,16,08,06,23.10
2013,07,16,08,07,23.10
2013,07,16,08,08,23.20
2013,07,16,08,09,23.20
2013,07,16,08,10,23.20
2013,07,16,08,11,23.30
2013,07,16,08,12,23.40
2013,07,16,08,13,23.40
2013,07,16,08,14,23.50
2013,07,16,08,15,23.60
2013,07,16,08,16,23.60
2013,07,16,08,17,23.60
2013,07,16,08,18,23.70
2013,07,16,08,19,23.60
2013,07,16,08,20,23.60
2013,07,16,08,21,23.60
2013,07,16,08,22,23.60
2013,07,16,08,23,23.60
2013,07,16,08,24,23.60
2013,07,16,08,25,23.70
2013,07,16,08,26,23.70
2013,07,16,08,27,23.70
2013,07,16,08,28,23.70
2013,07,16,08,29,23.70
2013,07,16,08,30,23.70
2013,07,16,08,31,23.70
2013,07,16,08,32,23.70
2013,07,16,08,33,23.60
2013,07,16,08,34,23.60
2013,07,16,08,35,23.70
2013,07,16,08,36,23.70
2013,07,16,08,37,23.70
2013,07,16,08,38,23.70
2013,07,16,08,39,23.70
2013,07,16,08,40,23.70
2013,07,16,08,41,23.80
2013,07,16,08,42,23.80
2013,07,16,08,43,23.80
2013,07,16,08,44,23.90
2013,07,16,08,45,23.90
2013,07,16,08,46,23.90
2013,07,16,08,47,23.90
2013,07,16,08,48,24.00
2013,07,16,08,49,24.00
2013,07,16,08,50,24.00
2013,07,16,08,51,24.00
2013,07,16,08,52,24.00
2013,07,16,08,53,24.00
2013,07,16,08,54,24.00
2013,07,16,08,55,23.90
2013,07,16,08,56,23.90
2013,07,16,08,57,23.90
2013,07,16,08,58,23.90
2013,07,16,08,59,23.90
2013,07,16,09,00,23.90
2013,07,16,09,01,23.90
2013,07,16,09,02,23.90
2013,07,16,09,03,24.00
2013,07,16,09,04,23.90
2013,07,16,09,05,23.90
2013,07,16,09,06,23.90
2013,07,16,09,07,23.90
2013,07,16,09,08,23.90
2013,07,16,09,09,23.80
2013,07,16,09,10,23.80
2013,07,16,09,11,23.80
2013,07,16,09,12,23.90
2013,07,16,09,13,23.90
2013,07,16,09,14,24.10
2013,07,16,09,15,24.20
2013,07,16,09,16,24.30
2013,07,16,09,17,24.30
2013,07,16,09,18,24.40
2013,07,16,09,19,24.50
2013,07,16,09,20,24.60
2013,07,16,09,21,24.70
2013,07,16,09,22,24.70
2013,07,16,09,23,24.70
2013,07,16,09,24,24.70
2013,07,16,09,25,24.70
2013,07,16,09,26,24.80
2013,07,16,09,27,24.80
2013,07,16,09,28,24.90
2013,07,16,09,29,25.10
2013,07,16,09,30,25.30
2013,07,16,09,31,25.40
2013,07,16,09,32,25.30
2013,07,16,09,33,25.30
2013,07,16,09,34,25.30
2013,07,16,09,35,25.30
2013,07,16,09,36,25.30
2013,07,16,09,37,25.30
2013,07,16,09,38,25.30
2013,07,16,09,39,25.40
2013,07,16,09,40,25.40
2013,07,16,09,41,25.30
2013,07,16,09,42,25.30
2013,07,16,09,43,25.30
2013,07,16,09,44,25.40
2013,07,16,09,45,25.40
2013,07,16,09,46,25.40
2013,07,16,09,47,25.40
2013,07,16,09,48,25.50
2013,07,16,09,49,25.50
2013,07,16,09,50,25.60
2013,07,16,09,51,25.70
2013,07,16,09,52,25.70
2013,07,16,09,53,25.60
2013,07,16,09,54,25.60
2013,07,16,09,55,25.60
2013,07,16,09,56,25.60
2013,07,16,09,57,25.70
2013,07,16,09,58,25.70
2013,07,16,09,59,25.80
2013,07,16,10,00,25.90
2013,07,16,10,01,25.90
2013,07,16,10,02,26.00
2013,07,16,10,03,26.10
2013,07,16,10,04,26.10
2013,07,16,10,05,26.20
2013,07,16,10,06,26.20
2013,07,16,10,07,26.10
2013,07,16,10,08,25.90
2013,07,16,10,09,25.90
2013,07,16,10,10,25.80
2013,07,16,10,11,25.80
2013,07,16,10,12,25.70
2013,07,16,10,13,25.70
2013,07,16,10,14,25.60
2013,07,16,10,15,25.50
2013,07,16,10,16,25.40
2013,07,16,10,17,25.30
2013,07,16,10,18,25.30
2013,07,16,10,19,25.40
2013,07,16,10,20,25.40
2013,07,16,10,21,25.50
2013,07,16,10,22,25.60
2013,07,16,10,23,25.70
2013,07,16,10,24,25.80
2013,07,16,10,25,25.90
2013,07,16,10,26,25.90
2013,07,16,10,27,26.10
2013,07,16,10,28,26.10
2013,07,16,10,29,26.20
2013,07,16,10,30,26.40
2013,07,16,10,31,26.40
2013,07,16,10,32,26.40
2013,07,16,10,33,26.30
2013,07,16,10,34,26.30
2013,07,16,10,35,26.30
2013,07,16,10,36,26.30
2013,07,16,10,37,26.30
2013,07,16,10,38,26.30
2013,07,16,10,39,26.30
2013,07,16,10,40,26.30
2013,07,16,10,41,26.30
2013,07,16,10,42,26.40
2013,07,16,10,43,26.50
2013,07,16,10,44,26.60
2013,07,16,10,45,26.70
2013,07,16,10,46,26.90
2013,07,16,10,47,27.10
2013,07,16,10,48,27.20
2013,07,16,10,49,27.30
2013,07,16,10,50,27.30
2013,07,16,10,51,27.30
2013,07,16,10,52,27.20
2013,07,16,10,53,27.10
2013,07,16,10,54,26.90
2013,07,16,10,55,26.90
2013,07,16,10,56,26.90
2013,07,16,10,57,27.10
2013,07,16,10,58,27.20
2013,07,16,10,59,27.30
2013,07,16,11,00,27.30
2013,07,16,11,01,27.20
2013,07,16,11,02,27.10
2013,07,16,11,03,27.00
2013,07,16,11,04,26.90
2013,07,16,11,05,26.80
2013,07,16,11,06,26.70
2013,07,16,11,07,26.80
2013,07,16,11,08,26.90
2013,07,16,11,09,27.00
2013,07,16,11,10,27.20
2013,07,16,11,11,27.30
2013,07,16,11,12,27.50
2013,07,16,11,13,27.60
2013,07,16,11,14,27.80
2013,07,16,11,15,27.80
2013,07,16,11,16,27.80
2013,07,16,11,17,27.70
2013,07,16,11,18,27.70
2013,07,16,11,19,27.70
2013,07,16,11,20,27.70
2013,07,16,11,21,27.60
2013,07,16,11,22,27.50
2013,07,16,11,23,27.50
2013,07,16,11,24,27.60
2013,07,16,11,25,27.70
2013,07,16,11,26,27.90
2013,07,16,11,27,28.00
2013,07,16,11,28,28.10
2013,07,16,11,29,28.00
2013,07,16,11,30,28.10
2013,07,16,11,31,28.10
2013,07,16,11,32,28.30
2013,07,16,11,33,28.40
2013,07,16,11,34,28.50
2013,07,16,11,35,28.70
2013,07,16,11,36,28.70
2013,07,16,11,37,28.70
2013,07,16,11,38,28.80
2013,07,16,11,39,28.70
2013,07,16,11,40,28.60
2013,07,16,11,41,28.50
2013,07,16,11,42,28.50
2013,07,16,11,43,28.30
2013,07,16,11,44,28.20
2013,07,16,11,45,28.10
2013,07,16,11,46,28.10
2013,07,16,11,47,28.00
2013,07,16,11,48,28.00
2013,07,16,11,49,28.00
2013,07,16,11,50,28.00
2013,07,16,11,51,27.90
2013,07,16,11,52,27.90
2013,07,16,11,53,27.90
2013,07,16,11,54,27.90
2013,07,16,11,55,27.80
2013,07,16,11,56,27.80
2013,07,16,11,57,27.80
2013,07,16,11,58,27.80
2013,07,16,11,59,27.90
2013,07,16,12,00,28.00
2013,07,16,12,01,28.00
2013,07,16,12,02,28.00
2013,07,16,12,03,28.00
2013,07,16,12,04,28.00
2013,07,16,12,05,28.00
2013,07,16,12,06,28.00
2013,07,16,12,07,28.00
2013,07,16,12,08,28.00
2013,07,16,12,09,27.90
2013,07,16,12,10,28.00
2013,07,16,12,11,27.90
2013,07,16,12,12,27.90
2013,07,16,12,13,27.90
2013,07,16,12,14,28.00
2013,07,16,12,15,28.00
2013,07,16,12,16,28.00
2013,07,16,12,17,28.10
2013,07,16,12,18,28.10
2013,07,16,12,19,28.20
2013,07,16,12,20,28.20
2013,07,16,12,21,28.20
2013,07,16,12,22,28.20
2013,07,16,12,23,28.30
2013,07,16,12,24,28.30
2013,07,16,12,25,28.30
2013,07,16,12,26,28.20
2013,07,16,12,27,28.20
2013,07,16,12,28,28.10
2013,07,16,12,29,28.10
2013,07,16,12,30,28.10
2013,07,16,12,31,28.10
2013,07,16,12,32,28.10
2013,07,16,12,33,28.20
2013,07,16,12,34,28.20
2013,07,16,12,35,28.10
2013,07,16,12,36,28.00
2013,07,16,12,37,28.00
2013,07,16,12,38,28.00
2013,07,16,12,39,28.00
2013,07,16,12,40,28.00
2013,07,16,12,41,28.00
2013,07,16,12,42,28.00
2013,07,16,12,43,27.90
2013,07,16,12,44,27.90
2013,07,16,12,45,27.90
2013,07,16,12,46,27.80
2013,07,16,12,47,27.90
2013,07,16,12,48,27.90
2013,07,16,12,49,27.90
2013,07,16,12,50,27.90
2013,07,16,12,51,28.00
2013,07,16,12,52,28.10
2013,07,16,12,53,28.20
2013,07,16,12,54,28.30
2013,07,16,12,55,28.30
2013,07,16,12,56,28.30
2013,07,16,12,57,28.30
2013,07,16,12,58,28.20
2013,07,16,12,59,28.30
2013,07,16,13,00,28.30
2013,07,16,13,01,28.30
2013,07,16,13,02,28.40
2013,07,16,13,03,28.30
2013,07,16,13,04,28.30
2013,07,16,13,05,28.10
2013,07,16,13,06,28.10
2013,07,16,13,07,28.00
2013,07,16,13,08,28.10
2013,07,16,13,09,28.10
2013,07,16,13,10,28.10
2013,07,16,13,11,28.20
2013,07,16,13,12,28.30
2013,07,16,13,13,28.40
2013,07,16,13,14,28.50
2013,07,16,13,15,28.50
2013,07,16,13,16,28.40
2013,07,16,13,17,28.40
2013,07,16,13,18,28.40
2013,07,16,13,19,28.40
2013,07,16,13,20,28.40
2013,07,16,13,21,28.40
2013,07,16,13,22,28.40
2013,07,16,13,23,28.40
2013,07,16,13,24,28.50
2013,07,16,13,25,28.60
2013,07,16,13,26,28.70
2013,07,16,13,27,28.70
2013,07,16,13,28,28.70
2013,07,16,13,29,28.80
2013,07,16,13,30,28.80
2013,07,16,13,31,28.90
2013,07,16,13,32,28.90
2013,07,16,13,33,28.90
2013,07,16,13,34,28.90
2013,07,16,13,35,28.90
2013,07,16,13,36,28.90
2013,07,16,13,37,29.00
2013,07,16,13,38,29.00
2013,07,16,13,39,29.10
2013,07,16,13,40,29.10
2013,07,16,13,41,29.10
2013,07,16,13,42,29.00
2013,07,16,13,43,28.90
2013,07,16,13,44,28.90
2013,07,16,13,45,28.80
2013,07,16,13,46,28.80
2013,07,16,13,47,28.80
2013,07,16,13,48,28.80
2013,07,16,13,49,28.80
2013,07,16,13,50,28.80
2013,07,16,13,51,28.90
2013,07,16,13,52,28.90
2013,07,16,13,53,28.90
2013,07,16,13,54,28.90
2013,07,16,13,55,28.90
2013,07,16,13,56,28.80
2013,07,16,13,57,28.80
2013,07,16,13,58,28.70
2013,07,16,13,59,28.70
2013,07,16,14,00,28.70
2013,07,16,14,01,28.70
2013,07,16,14,02,28.70
2013,07,16,14,03,28.70
2013,07,16,14,04,28.60
2013,07,16,14,05,28.50
2013,07,16,14,06,28.40
2013,07,16,14,07,28.40
2013,07,16,14,08,28.40
2013,07,16,14,09,28.40
2013,07,16,14,10,28.40
2013,07,16,14,11,28.40
2013,07,16,14,12,28.40
2013,07,16,14,13,28.40
2013,07,16,14,14,28.40
2013,07,16,14,15,28.40
2013,07,16,14,16,28.30
2013,07,16,14,17,28.30
2013,07,16,14,18,28.30
2013,07,16,14,19,28.20
2013,07,16,14,20,28.00
2013,07,16,14,21,28.00
2013,07,16,14,22,28.00
2013,07,16,14,23,27.90
2013,07,16,14,24,27.90
2013,07,16,14,25,28.00
2013,07,16,14,26,28.00
2013,07,16,14,27,28.00
2013,07,16,14,28,27.90
2013,07,16,14,29,27.90
2013,07,16,14,30,27.80
2013,07,16,14,31,27.80
2013,07,16,14,32,27.80
2013,07,16,14,33,27.80
2013,07,16,14,34,27.90
2013,07,16,14,35,27.90
2013,07,16,14,36,28.00
2013,07,16,14,37,28.00
2013,07,16,14,38,28.00
2013,07,16,14,39,28.10
2013,07,16,14,40,28.10
2013,07,16,14,41,28.10
2013,07,16,14,42,28.10
2013,07,16,14,43,28.10
2013,07,16,14,44,28.10
2013,07,16,14,45,28.10
2013,07,16,14,46,28.60
2013,07,16,14,47,28.70
2013,07,16,14,48,28.70
2013,07,16,14,49,28.80
2013,07,16,14,50,28.90
2013,07,16,14,51,29.00
2013,07,16,14,52,29.20
2013,07,16,14,53,29.30
2013,07,16,14,54,29.40
2013,07,16,14,55,29.40
2013,07,16,14,56,29.50
2013,07,16,14,57,29.60
2013,07,16,14,58,29.60
2013,07,16,14,59,29.60
2013,07,16,15,00,29.60
2013,07,16,15,01,29.50
2013,07,16,15,02,29.40
2013,07,16,15,03,29.30
2013,07,16,15,04,29.20
2013,07,16,15,05,29.10
2013,07,16,15,06,29.10
2013,07,16,15,07,29.00
2013,07,16,15,08,29.00
2013,07,16,15,09,29.00
2013,07,16,15,10,28.90
2013,07,16,15,11,28.90
2013,07,16,15,12,28.90
2013,07,16,15,13,28.80
2013,07,16,15,14,28.70
2013,07,16,15,15,28.70
2013,07,16,15,16,28.60
2013,07,16,15,17,28.60
2013,07,16,15,18,28.60
2013,07,16,15,19,28.60
2013,07,16,15,20,28.60
2013,07,16,15,21,28.60
2013,07,16,15,22,28.60
2013,07,16,15,23,28.60
2013,07,16,15,24,28.60
2013,07,16,15,25,28.70
2013,07,16,15,26,28.70
2013,07,16,15,27,28.70
2013,07,16,15,28,28.70
2013,07,16,15,29,28.70
2013,07,16,15,30,28.70
2013,07,16,15,31,28.70
2013,07,16,15,32,28.60
2013,07,16,15,33,28.60
2013,07,16,15,34,28.60
2013,07,16,15,35,28.60
2013,07,16,15,36,28.50
2013,07,16,15,37,28.40
2013,07,16,15,38,28.30
2013,07,16,15,39,28.20
2013,07,16,15,40,28.10
2013,07,16,15,41,28.10
2013,07,16,15,42,28.00
2013,07,16,15,43,28.00
2013,07,16,15,44,28.00
2013,07,16,15,45,28.00
2013,07,16,15,46,28.00
2013,07,16,15,47,28.00
2013,07,16,15,48,28.10
2013,07,16,15,49,28.10
2013,07,16,15,50,28.20
2013,07,16,15,51,28.30
2013,07,16,15,52,28.40
2013,07,16,15,53,28.40
2013,07,16,15,54,28.40
2013,07,16,15,55,28.40
2013,07,16,15,56,28.50
2013,07,16,15,57,28.50
2013,07,16,15,58,28.60
2013,07,16,15,59,28.70
2013,07,16,16,00,28.70
2013,07,16,16,01,28.80
2013,07,16,16,02,28.90
2013,07,16,16,03,28.90
2013,07,16,16,04,28.90
2013,07,16,16,05,28.90
2013,07,16,16,06,28.90
2013,07,16,16,07,29.00
2013,07,16,16,08,29.00
2013,07,16,16,09,29.10
2013,07,16,16,10,29.10
2013,07,16,16,11,29.10
2013,07,16,16,12,29.10
2013,07,16,16,13,29.20
2013,07,16,16,14,29.20
2013,07,16,16,15,29.30
2013,07,16,16,16,29.30
2013,07,16,16,17,29.30
2013,07,16,16,18,29.30
2013,07,16,16,19,29.40
2013,07,16,16,20,29.30
2013,07,16,16,21,29.30
2013,07,16,16,22,29.30
2013,07,16,16,23,29.20
2013,07,16,16,24,29.20
2013,07,16,16,25,29.20
2013,07,16,16,26,29.20
2013,07,16,16,27,29.10
2013,07,16,16,28,29.10
2013,07,16,16,29,29.10
2013,07,16,16,30,29.10
2013,07,16,16,31,29.10
2013,07,16,16,32,29.10
2013,07,16,16,33,29.10
2013,07,16,16,34,29.10
2013,07,16,16,35,29.10
2013,07,16,16,36,29.10
2013,07,16,16,37,29.20
2013,07,16,16,38,29.20
2013,07,16,16,39,29.10
2013,07,16,16,40,29.10
2013,07,16,16,41,29.00
2013,07,16,16,42,29.00
2013,07,16,16,43,28.90
2013,07,16,16,44,28.90
2013,07,16,16,45,28.90
2013,07,16,16,46,28.80
2013,07,16,16,47,28.70
2013,07,16,16,48,28.60
2013,07,16,16,49,28.60
2013,07,16,16,50,28.50
2013,07,16,16,51,28.40
2013,07,16,16,52,28.30
2013,07,16,16,53,28.30
2013,07,16,16,54,28.30
2013,07,16,16,55,28.20
2013,07,16,16,56,28.20
2013,07,16,16,57,28.20
2013,07,16,16,58,28.20
2013,07,16,16,59,28.10
2013,07,16,17,00,28.10
2013,07,16,17,01,28.10
2013,07,16,17,02,28.20
2013,07,16,17,03,28.20
2013,07,16,17,04,28.20
2013,07,16,17,05,28.20
2013,07,16,17,06,28.30
2013,07,16,17,07,28.30
2013,07,16,17,08,28.40
2013,07,16,17,09,28.40
2013,07,16,17,10,28.40
2013,07,16,17,11,28.50
2013,07,16,17,12,28.50
2013,07,16,17,13,28.50
2013,07,16,17,14,28.50
2013,07,16,17,15,28.40
2013,07,16,17,16,28.40
2013,07,16,17,17,28.40
2013,07,16,17,18,28.30
2013,07,16,17,19,28.30